EN

Hourly Weather Abano Terme

Today, 19 June, Saturday

Time Temperature Precipitation Wind Pressure Humidity
00:00 +22°C° 0 mm 1 mps 761 mmHg 83%
01:00 +20°C° 0 mm 0 mps 761 mmHg 84%
02:00 +20°C° 0 mm 0 mps 761 mmHg 84%
03:00 +22°C° 0 mm 1 mps 761 mmHg 84%
04:00 +21°C° 0 mm 1 mps 761 mmHg 84%
05:00 +21°C° 0 mm 0 mps 761 mmHg 81%
06:00 +22°C° 0 mm 0 mps 761 mmHg 77%
07:00 +23°C° 0 mm 0 mps 761 mmHg 73%
08:00 +24°C° 0 mm 0 mps 760 mmHg 69%
09:00 +27°C° 0 mm 1 mps 760 mmHg 65%
10:00 +29°C° 0 mm 1 mps 760 mmHg 61%
11:00 +30°C° 0 mm 1 mps 760 mmHg 58%
12:00 +31°C° 0 mm 1 mps 759 mmHg 55%
13:00 +32°C° 0 mm 2 mps 759 mmHg 52%
14:00 +32°C° 0 mm 2 mps 759 mmHg 50%
15:00 +32°C° 0 mm 2 mps 758 mmHg 49%
16:00 +34°C° 0 mm 2 mps 758 mmHg 47%
17:00 +32°C° 0 mm 2 mps 758 mmHg 53%
18:00 +30°C° 0 mm 1 mps 758 mmHg 58%
19:00 +29°C° 0 mm 1 mps 758 mmHg 63%
20:00 +28°C° 0 mm 1 mps 758 mmHg 67%
21:00 +26°C° 0 mm 1 mps 758 mmHg 71%
22:00 +25°C° 0 mm 1 mps 758 mmHg 76%
23:00 +25°C° 0 mm 1 mps 758 mmHg 77%

Tomorrow, 20 June, Sunday

Time Temperature Precipitation Wind Pressure Humidity
00:00 +24°C° 0 mm 1 mps 758 mmHg 78%
01:00 +24°C° 0 mm 1 mps 758 mmHg 79%
02:00 +24°C° 0 mm 1 mps 758 mmHg 80%
03:00 +23°C° 0 mm 1 mps 758 mmHg 80%
04:00 +23°C° 0 mm 1 mps 758 mmHg 81%
05:00 +24°C° 0 mm 1 mps 758 mmHg 77%
06:00 +25°C° 0 mm 1 mps 758 mmHg 74%
07:00 +26°C° 0 mm 1 mps 758 mmHg 70%
08:00 +28°C° 0 mm 1 mps 758 mmHg 65%
09:00 +29°C° 0 mm 1 mps 758 mmHg 60%
10:00 +30°C° 0 mm 1 mps 758 mmHg 56%
11:00 +31°C° 0 mm 1 mps 757 mmHg 53%
12:00 +32°C° 0 mm 1 mps 757 mmHg 50%
13:00 +34°C° 0 mm 2 mps 756 mmHg 47%
14:00 +34°C° 0 mm 2 mps 756 mmHg 47%
15:00 +34°C° 0 mm 2 mps 755 mmHg 48%
16:00 +34°C° 0 mm 2 mps 755 mmHg 48%
17:00 +32°C° 0 mm 2 mps 755 mmHg 54%
18:00 +30°C° 0 mm 2 mps 754 mmHg 61%
19:00 +29°C° 0 mm 3 mps 754 mmHg 67%
20:00 +28°C° 0 mm 2 mps 754 mmHg 67%
21:00 +27°C° 0 mm 2 mps 754 mmHg 68%
22:00 +26°C° 0 mm 1 mps 754 mmHg 68%
23:00 +25°C° 0 mm 1 mps 754 mmHg 72%

Day after tomorrow, 21 June, Monday

Time Temperature Precipitation Wind Pressure Humidity
00:00 +25°C° 0 mm 1 mps 754 mmHg 75%
01:00 +24°C° 0 mm 2 mps 754 mmHg 78%
02:00 +23°C° 0 mm 2 mps 754 mmHg 80%
03:00 +23°C° 0 mm 2 mps 754 mmHg 82%
04:00 +23°C° 0 mm 2 mps 754 mmHg 84%
05:00 +24°C° 0 mm 2 mps 754 mmHg 82%
06:00 +25°C° 0 mm 1 mps 755 mmHg 79%
07:00 +25°C° 0 mm 1 mps 755 mmHg 76%
08:00 +27°C° 0 mm 2 mps 755 mmHg 70%
09:00 +28°C° 0 mm 2 mps 755 mmHg 64%
10:00 +30°C° 0 mm 3 mps 755 mmHg 58%
11:00 +31°C° 0 mm 3 mps 755 mmHg 54%
12:00 +33°C° 0 mm 4 mps 755 mmHg 50%
13:00 +34°C° 0 mm 5 mps 754 mmHg 46%
14:00 +34°C° 0 mm 4 mps 754 mmHg 45%
15:00 +34°C° 0 mm 4 mps 754 mmHg 44%
16:00 +34°C° 0 mm 4 mps 754 mmHg 43%
17:00 +33°C° 0 mm 3 mps 754 mmHg 49%
18:00 +30°C° 0 mm 3 mps 754 mmHg 55%
19:00 +29°C° 0 mm 3 mps 754 mmHg 62%
20:00 +28°C° 0 mm 2 mps 754 mmHg 65%
21:00 +26°C° 0 mm 2 mps 755 mmHg 68%
22:00 +25°C° 0 mm 1 mps 755 mmHg 71%
23:00 +24°C° 0 mm 1 mps 755 mmHg 74%

22 June, Tuesday

Time Temperature Precipitation Wind Pressure Humidity
00:00 +23°C° 0 mm 1 mps 755 mmHg 78%
01:00 +23°C° 0 mm 2 mps 756 mmHg 81%
02:00 +22°C° 0 mm 1 mps 756 mmHg 84%
03:00 +22°C° 0 mm 1 mps 756 mmHg 86%
04:00 +22°C° 0 mm 1 mps 756 mmHg 88%
05:00 +23°C° 0 mm 1 mps 756 mmHg 85%
06:00 +24°C° 0 mm 1 mps 757 mmHg 82%
07:00 +25°C° 0 mm 1 mps 757 mmHg 78%
08:00 +27°C° 0 mm 1 mps 757 mmHg 72%
09:00 +28°C° 0 mm 1 mps 757 mmHg 67%
10:00 +30°C° 0 mm 1 mps 757 mmHg 61%
11:00 +31°C° 0 mm 1 mps 757 mmHg 56%
12:00 +32°C° 0 mm 1 mps 757 mmHg 52%
13:00 +34°C° 0 mm 2 mps 757 mmHg 47%
14:00 +34°C° 0 mm 2 mps 757 mmHg 46%
15:00 +34°C° 0 mm 2 mps 757 mmHg 45%
16:00 +34°C° 0 mm 2 mps 757 mmHg 44%
17:00 +32°C° 0 mm 2 mps 757 mmHg 52%
18:00 +30°C° 0 mm 2 mps 757 mmHg 60%
19:00 +28°C° 0 mm 3 mps 757 mmHg 68%
20:00 +27°C° 0 mm 2 mps 757 mmHg 71%
21:00 +26°C° 0 mm 1 mps 757 mmHg 73%
22:00 +25°C° 0 mm 1 mps 758 mmHg 76%
23:00 +24°C° 0.1 mm 1 mps 758 mmHg 77%

23 June, Wednesday

Time Temperature Precipitation Wind Pressure Humidity
00:00 +24°C° 0.1 mm 2 mps 757 mmHg 77%
01:00 +24°C° 0.1 mm 2 mps 757 mmHg 78%
02:00 +23°C° 0 mm 2 mps 757 mmHg 80%
03:00 +23°C° 0 mm 1 mps 758 mmHg 81%
04:00 +22°C° 0 mm 1 mps 758 mmHg 83%
05:00 +23°C° 0 mm 1 mps 758 mmHg 80%
06:00 +24°C° 0 mm 1 mps 758 mmHg 77%
07:00 +26°C° 0 mm 1 mps 758 mmHg 74%
08:00 +27°C° 0 mm 1 mps 758 mmHg 68%
09:00 +29°C° 0 mm 1 mps 758 mmHg 62%
10:00 +30°C° 0 mm 2 mps 758 mmHg 56%
11:00 +31°C° 0 mm 2 mps 758 mmHg 54%
12:00 +32°C° 0 mm 2 mps 758 mmHg 51%
13:00 +32°C° 0 mm 2 mps 758 mmHg 49%
14:00 +34°C° 0 mm 2 mps 758 mmHg 49%
15:00 +34°C° 0 mm 2 mps 758 mmHg 49%
16:00 +34°C° 0 mm 2 mps 758 mmHg 49%
17:00 +32°C° 0 mm 2 mps 758 mmHg 56%
18:00 +30°C° 0 mm 2 mps 758 mmHg 62%
19:00 +29°C° 0 mm 2 mps 758 mmHg 69%
20:00 +28°C° 0 mm 2 mps 758 mmHg 71%
21:00 +27°C° 0 mm 1 mps 758 mmHg 73%
22:00 +26°C° 0 mm 1 mps 759 mmHg 75%
23:00 +25°C° 0 mm 1 mps 759 mmHg 76%

24 June, Thursday

Time Temperature Precipitation Wind Pressure Humidity
00:00 +25°C° 0 mm 1 mps 759 mmHg 78%
01:00 +24°C° 0 mm 1 mps 759 mmHg 79%
02:00 +23°C° 0 mm 1 mps 759 mmHg 80%
03:00 +23°C° 0 mm 1 mps 759 mmHg 80%
04:00 +21°C° 0 mm 2 mps 760 mmHg 81%
05:00 +23°C° 0 mm 1 mps 760 mmHg 78%
06:00 +24°C° 0 mm 1 mps 760 mmHg 75%
07:00 +25°C° 0 mm 1 mps 760 mmHg 72%
08:00 +26°C° 0 mm 2 mps 760 mmHg 65%
09:00 +28°C° 0 mm 2 mps 760 mmHg 59%
10:00 +30°C° 0 mm 2 mps 761 mmHg 52%
11:00 +31°C° 0 mm 2 mps 760 mmHg 46%
12:00 +32°C° 0 mm 2 mps 760 mmHg 41%
13:00 +34°C° 0 mm 2 mps 760 mmHg 35%
14:00 +34°C° 0 mm 2 mps 760 mmHg 34%
15:00 +34°C° 0 mm 2 mps 759 mmHg 32%
16:00 +34°C° 0 mm 2 mps 759 mmHg 31%
17:00 +32°C° 0 mm 2 mps 759 mmHg 39%
18:00 +30°C° 0 mm 2 mps 759 mmHg 47%
19:00 +28°C° 0 mm 2 mps 759 mmHg 55%
20:00 +27°C° 0 mm 2 mps 759 mmHg 56%
21:00 +25°C° 0 mm 1 mps 759 mmHg 57%
22:00 +24°C° 0 mm 1 mps 759 mmHg 58%
23:00 +23°C° 0 mm 1 mps 759 mmHg 60%
Show more